Weather History for KAGC - July, 2013

Change the Weather History Date:

Thursday, July 11, 2013

  Actual Average Record
Temperature  
Mean Temperature 70 °F -  
Max Temperature 77 °F 85 °F 93 °F (2011)
Min Temperature 64 °F 63 °F 53 °F (1996)
Cooling Degree Days 4    
Growing Degree Days 20 (Base 50)    
Moisture  
Dew Point 61 °F    
Average Humidity 79    
Maximum Humidity 100    
Minimum Humidity 54    
Precipitation  
Precipitation 0.00 in - - ()
Sea Level Pressure  
Sea Level Pressure 29.97 in    
Wind  
Wind Speed 4 mph (NNW)    
Max Wind Speed 8 mph    
Max Gust Speed -    
Visibility 9 miles    
Events      
Averages and records for this station are not official NWS values.
T = Trace of Precipitation, MM = Missing Value Source: NWS Daily Summary

Daily Weather History Graph

Daily Weather History Graph

Search for Another Location

Airport or City:

Trip Planner

Search our weather history database for the weather conditions in past years. The results will help you decide how hot, cold, wet, or windy it might be!

Date:

Astronomy

Jul. 11, 2013 Rise Set
Actual Time 5:59 AM EDT 8:50 PM EDT
Civil Twilight 5:27 AM EDT 9:22 PM EDT
Nautical Twilight 4:46 AM EDT 10:03 PM EDT
Astronomical Twilight 3:59 AM EDT 10:50 PM EDT
Moon 9:17 AM EDT (7/11) 10:29 PM EDT (7/11)
Length of Visible Light 15h 55m
Length of Day
14h 50m
Waxing Crescent, 10% of the Moon is Illuminated
Jul 11
Waxing Crescent
Jul 15
First Quarter
Jul 22
Full
Jul 29
Last Quarter
Aug 6
New

Hourly Weather History & Observations

Time (EDT) Temp. Dew Point Humidity Pressure Visibility Wind Dir Wind Speed Gust Speed Precip Events Conditions
12:53 AM 66.0 °F 64.9 °F 96% 29.91 in 7.0 mi WNW 4.6 mph - N/A   Mostly Cloudy
1:48 AM 64.4 °F 64.4 °F 100% 29.93 in 6.0 mi West 4.6 mph - N/A   Scattered Clouds
1:53 AM 64.9 °F 64.0 °F 97% 29.92 in 7.0 mi WNW 3.5 mph - N/A   Mostly Cloudy
2:00 AM 64.4 °F 64.4 °F 100% 29.93 in 9.0 mi WNW 4.6 mph - N/A   Scattered Clouds
2:10 AM 64.4 °F 64.4 °F 100% 29.93 in 9.0 mi NW 3.5 mph - N/A   Mostly Cloudy
2:53 AM 64.9 °F 64.0 °F 97% 29.92 in 7.0 mi WNW 5.8 mph - N/A   Overcast
3:53 AM 66.0 °F 64.0 °F 93% 29.92 in 6.0 mi Calm Calm - N/A   Overcast
4:53 AM 66.0 °F 64.0 °F 93% 29.94 in 10.0 mi West 4.6 mph - N/A   Overcast
5:53 AM 66.0 °F 64.0 °F 93% 29.95 in 8.0 mi WNW 3.5 mph - N/A   Overcast
6:45 AM 66.2 °F 64.4 °F 94% 29.98 in 7.0 mi WNW 4.6 mph - N/A   Overcast
6:53 AM 66.0 °F 64.0 °F 93% 29.98 in 6.0 mi WNW 3.5 mph - N/A   Overcast
7:53 AM 66.9 °F 64.9 °F 93% 29.99 in 6.0 mi NW 3.5 mph - N/A   Overcast
8:20 AM 68.0 °F 64.4 °F 88% 29.99 in 7.0 mi NNW 4.6 mph - N/A   Overcast
8:30 AM 68.0 °F 64.4 °F 88% 29.99 in 8.0 mi Variable 3.5 mph - N/A   Overcast
8:39 AM 68.0 °F 64.4 °F 88% 30.00 in 8.0 mi Variable 3.5 mph - N/A   Overcast
8:53 AM 68.0 °F 64.9 °F 90% 29.99 in 9.0 mi North 6.9 mph - N/A   Overcast
9:15 AM 69.8 °F 64.4 °F 83% 30.00 in 10.0 mi NNE 8.1 mph - N/A   Mostly Cloudy
9:22 AM 69.8 °F 64.4 °F 83% 30.00 in 10.0 mi Variable 5.8 mph - N/A   Mostly Cloudy
9:53 AM 70.0 °F 63.0 °F 78% 30.00 in 10.0 mi North 3.5 mph - N/A   Overcast
10:53 AM 71.1 °F 57.9 °F 63% 30.01 in 10.0 mi North 6.9 mph - N/A   Overcast
11:53 AM 73.0 °F 57.9 °F 59% 30.01 in 10.0 mi North 6.9 mph - N/A   Mostly Cloudy
12:53 PM 75.0 °F 59.0 °F 57% 30.00 in 10.0 mi Variable 3.5 mph - N/A   Clear
1:53 PM 75.0 °F 59.0 °F 57% 29.99 in 10.0 mi Calm Calm - N/A   Scattered Clouds
2:53 PM 73.0 °F 60.1 °F 64% 29.99 in 10.0 mi NNW 4.6 mph - N/A   Overcast
3:53 PM 73.9 °F 57.9 °F 57% 29.99 in 10.0 mi North 3.5 mph - N/A   Overcast
4:53 PM 73.9 °F 59.0 °F 59% 29.98 in 10.0 mi NNW 3.5 mph - N/A   Overcast
5:53 PM 75.9 °F 57.9 °F 54% 29.97 in 10.0 mi NNW 6.9 mph - N/A   Scattered Clouds
6:53 PM 73.9 °F 57.0 °F 55% 29.98 in 10.0 mi North 6.9 mph - N/A   Mostly Cloudy
7:53 PM 73.0 °F 55.9 °F 55% 29.99 in 10.0 mi North 5.8 mph - N/A   Clear
8:53 PM 70.0 °F 57.0 °F 63% 29.98 in 10.0 mi North 5.8 mph - N/A   Clear
9:53 PM 68.0 °F 55.9 °F 65% 29.99 in 10.0 mi North 4.6 mph - N/A   Clear
10:53 PM 66.0 °F 55.0 °F 68% 30.00 in 10.0 mi North 5.8 mph - N/A   Clear
11:53 PM 66.0 °F 55.0 °F 68% 30.01 in 10.0 mi North 3.5 mph - N/A   Clear